{"data":{"norad_id":62436,"intl_designator":"2024-251E","name":"STARLINK-32697","alt_names":[],"object_type":"PAYLOAD","status":"ACTIVE","operator":null,"country":"US","launch_date":"2024-12-29","launch_site_code":"AFWTR","launch_vehicle":null,"mission":null,"orbit_class":"UNKNOWN","rcs_meters":null,"size_class":null,"mass_kg":null,"dimensions":null,"purposes":["comms"],"wikipedia_slug":null,"has_3d_model":false,"image_url":null,"decayed_at":null,"tle_current":{"epoch":"2026-09-21T21:30:21.658464Z","epoch_age_seconds":53951,"freshness":"FRESH","line1":"1 62436U 24251E   26264.89608401  .00010515  00000+0  32199-3 0  9999","line2":"2 62436  53.1588 142.8743 0001045  96.2061 263.9061 15.34390256 98008","mean_motion":15.34390256,"eccentricity":0.0001045,"inclination_deg":53.1588,"raan_deg":142.8743,"arg_perigee_deg":96.2061,"mean_anomaly_deg":263.9061,"bstar":0.00032199,"rev_number":9800,"period_min":93.848354052634,"perigee_km":462.01733075026,"apogee_km":463.44707241339,"semimajor_km":6840.8692015818,"source":"CELESTRAK","updated_at":"2026-09-22T09:00:49.580493Z"}}}